Location: Torrance
(33.8360°N, 118.3400°W)
Time: 13:15:04
(UTC-08:00)

N. Korean satellite - Visible Passes

Search period start: 24 February 2020 00:00
Search period end: 05 March 2020 00:00
Orbit: 456 x 505 km, 97.2° (Epoch: 24 February)

Date Brightness Start Highest point End Pass type
(mag) Time Alt. Az. Time Alt. Az. Time Alt. Az.
24 Feb 7.6 05:20:24 10° NNE 05:24:01 51° E 05:27:35 10° S visible
25 Feb 9.3 04:55:27 10° NE 04:58:24 22° E 05:01:19 10° SSE visible
26 Feb 10.3 04:32:13 10° E 04:32:42 10° E 04:33:12 10° E visible
27 Feb 6.6 05:37:02 10° N 05:40:44 88° WNW 05:44:22 10° SSW visible
28 Feb 8.2 05:11:43 10° NNE 05:15:11 38° E 05:18:34 10° SSE visible
29 Feb 9.7 04:47:02 10° NE 04:49:31 17° E 04:51:58 10° SE visible
01 Mar 6.8 05:53:50 10° N 05:57:24 48° WNW 06:00:53 10° SSW visible
02 Mar 7.0 05:28:13 10° NNE 05:31:54 68° ESE 05:35:28 10° S visible
03 Mar 8.8 05:03:05 10° NE 05:06:17 28° E 05:09:26 10° SSE visible
04 Mar 10.0 04:38:49 10° ENE 04:40:35 13° E 04:42:20 10° ESE visible
